SWR87C LSZH-LEBL

Flight info

Callsign SWR87C
Flight time 1h 27m
Altitude 33000
Route VEBIT T50 ROTOS Z669 ULMES DCT VADAR DCT GEVEA DCT INCUS DCT BALSI DCT RETNO DCT TUPOX DCT MTG DCT DIVKO DCT NILDU DCT BISBA
Aircraft A319/M-SDE3FGHIRWY/LB1

Departure

Time 2026-05-06 13:19
Airport Zürich Airport (LSZH)

Arrival

Time 2026-05-06 14:46
Airport Josep Tarradellas Barcelona-El Prat Airport (LEBL)
Time Latitude Longitude Altitude Speed Heading
2026-05-06 12:47 47.45588 8.55745 1408 ft 0 kts
2026-05-06 12:47 47.45590 8.55755 1413 ft 0 kts
2026-05-06 13:12 47.45591 8.55755 1408 ft 0 kts
2026-05-06 13:12 47.45595 8.55756 1408 ft 1 kts
2026-05-06 13:13 47.45609 8.55758 1413 ft 2 kts
2026-05-06 13:13 47.45622 8.55760 1407 ft 2 kts
2026-05-06 13:13 47.45635 8.55765 1407 ft 3 kts 24°
2026-05-06 13:13 47.45643 8.55787 1413 ft 2 kts 77°
2026-05-06 13:14 47.45643 8.55801 1410 ft 1 kts 94°
2026-05-06 13:14 47.45641 8.55825 1408 ft 4 kts 94°
2026-05-06 13:14 47.45638 8.55886 1409 ft 8 kts 97°
2026-05-06 13:14 47.45630 8.55977 1410 ft 11 kts 96°
2026-05-06 13:15 47.45622 8.56090 1411 ft 12 kts 95°
2026-05-06 13:15 47.45613 8.56217 1412 ft 13 kts 96°
2026-05-06 13:15 47.45603 8.56360 1417 ft 15 kts 96°
2026-05-06 13:15 47.45592 8.56514 1415 ft 13 kts 96°
2026-05-06 13:16 47.45585 8.56615 1417 ft 7 kts 96°
2026-05-06 13:16 47.45581 8.56666 1418 ft 4 kts 96°
2026-05-06 13:16 47.45577 8.56715 1419 ft 8 kts 96°
2026-05-06 13:16 47.45569 8.56829 1420 ft 13 kts 96°
2026-05-06 13:17 47.45563 8.56920 1420 ft 13 kts 96°
2026-05-06 13:17 47.45570 8.56997 1421 ft 6 kts 51°
2026-05-06 13:17 47.45593 8.57013 1423 ft 1 kts 12°
2026-05-06 13:17 47.45604 8.57015 1424 ft 6 kts
2026-05-06 13:18 47.45660 8.56973 1424 ft 13 kts 301°
2026-05-06 13:18 47.45686 8.56645 1417 ft 68 kts 275°
2026-05-06 13:18 47.45764 8.55588 1409 ft 134 kts 276°
2026-05-06 13:18 47.45871 8.54071 1769 ft 152 kts 275°
2026-05-06 13:19 47.45976 8.52509 2447 ft 154 kts 272°
2026-05-06 13:19 47.46071 8.50932 3103 ft 154 kts 272°
2026-05-06 13:19 47.46152 8.49369 3728 ft 152 kts 267°
2026-05-06 13:19 47.45938 8.47855 4258 ft 154 kts 240°
2026-05-06 13:20 47.45109 8.46734 4683 ft 173 kts 218°
2026-05-06 13:20 47.44191 8.45368 4819 ft 204 kts 233°
2026-05-06 13:20 47.43266 8.43531 5128 ft 238 kts 236°
2026-05-06 13:20 47.42270 8.41452 6070 ft 249 kts 236°
2026-05-06 13:21 47.41261 8.39343 7093 ft 254 kts 236°
2026-05-06 13:21 47.40228 8.37218 8075 ft 256 kts 234°
2026-05-06 13:21 47.39176 8.35090 9042 ft 258 kts 235°
2026-05-06 13:21 47.38286 8.32786 9993 ft 261 kts 245°
2026-05-06 13:22 47.37471 8.30282 10437 ft 282 kts 243°
2026-05-06 13:22 47.36535 8.27606 10763 ft 304 kts 242°
2026-05-06 13:22 47.35523 8.24794 11380 ft 315 kts 241°
2026-05-06 13:22 47.34484 8.21921 12086 ft 320 kts 241°
2026-05-06 13:23 47.33431 8.19004 12863 ft 325 kts 241°
2026-05-06 13:23 47.32356 8.16042 13616 ft 330 kts 240°
2026-05-06 13:23 47.31216 8.13076 14270 ft 335 kts 239°
2026-05-06 13:23 47.30008 8.10050 14958 ft 339 kts 238°
2026-05-06 13:24 47.28797 8.07058 15653 ft 343 kts 238°
2026-05-06 13:24 47.27569 8.04023 16326 ft 347 kts 237°
2026-05-06 13:24 47.26328 8.00945 16988 ft 352 kts 237°
2026-05-06 13:24 47.25076 7.97826 17661 ft 356 kts 237°
2026-05-06 13:25 47.23810 7.94665 18318 ft 361 kts 237°
2026-05-06 13:25 47.22532 7.91467 18881 ft 365 kts 237°
2026-05-06 13:25 47.21237 7.88230 19449 ft 369 kts 237°
2026-05-06 13:25 47.19924 7.84958 20024 ft 373 kts 236°
2026-05-06 13:26 47.18595 7.81654 20590 ft 378 kts 236°
2026-05-06 13:26 47.17250 7.78317 21156 ft 382 kts 236°
2026-05-06 13:26 47.15889 7.74940 21723 ft 386 kts 236°
2026-05-06 13:26 47.14512 7.71521 22277 ft 390 kts 236°
2026-05-06 13:27 47.13121 7.68074 22796 ft 394 kts 236°
2026-05-06 13:27 47.11716 7.64598 23357 ft 397 kts 236°
2026-05-06 13:27 47.10302 7.61099 23829 ft 400 kts 236°
2026-05-06 13:27 47.08880 7.57587 24334 ft 400 kts 236°
2026-05-06 13:28 47.07454 7.54080 24851 ft 400 kts 236°
2026-05-06 13:28 47.06005 7.50525 25374 ft 400 kts 236°
2026-05-06 13:28 47.04579 7.47025 25912 ft 401 kts 236°
2026-05-06 13:28 47.03145 7.43511 26440 ft 400 kts 235°
2026-05-06 13:29 47.01521 7.40227 26941 ft 398 kts 229°
2026-05-06 13:29 46.99787 7.37048 27392 ft 401 kts 229°
2026-05-06 13:29 46.98031 7.33852 27789 ft 404 kts 229°
2026-05-06 13:29 46.96264 7.30641 28233 ft 406 kts 229°
2026-05-06 13:30 46.94491 7.27420 28665 ft 407 kts 229°
2026-05-06 13:30 46.92727 7.24205 29245 ft 404 kts 229°
2026-05-06 13:30 46.90971 7.21003 29743 ft 403 kts 229°
2026-05-06 13:30 46.89213 7.17802 30152 ft 404 kts 229°
2026-05-06 13:31 46.87454 7.14598 30465 ft 406 kts 229°
2026-05-06 13:31 46.85683 7.11376 30751 ft 408 kts 229°
2026-05-06 13:31 46.83874 7.08095 31029 ft 410 kts 229°
2026-05-06 13:31 46.82085 7.04857 31340 ft 411 kts 229°
2026-05-06 13:32 46.80289 7.01608 31733 ft 410 kts 229°
2026-05-06 13:32 46.78505 6.98374 32113 ft 410 kts 229°
2026-05-06 13:32 46.76719 6.95138 32485 ft 409 kts 229°
2026-05-06 13:32 46.74933 6.91911 32869 ft 408 kts 229°
2026-05-06 13:33 46.73155 6.88710 32926 ft 403 kts 229°
2026-05-06 13:33 46.69642 6.82398 32917 ft 400 kts 229°
2026-05-06 13:34 46.66142 6.76123 32912 ft 399 kts 229°
2026-05-06 13:34 46.62478 6.70053 32908 ft 399 kts 225°
2026-05-06 13:35 46.58651 6.64234 32909 ft 398 kts 225°
2026-05-06 13:35 46.54816 6.58427 32906 ft 398 kts 225°
2026-05-06 13:36 46.51023 6.52576 32905 ft 398 kts 225°
2026-05-06 13:36 46.47246 6.46717 32907 ft 398 kts 225°
2026-05-06 13:37 46.43426 6.40818 32905 ft 400 kts 225°
2026-05-06 13:37 46.39603 6.34945 32902 ft 402 kts 225°
2026-05-06 13:38 46.35759 6.29052 32913 ft 403 kts 225°
2026-05-06 13:38 46.31903 6.23157 32923 ft 403 kts 225°
2026-05-06 13:39 46.28003 6.17327 32928 ft 403 kts 220°
2026-05-06 13:39 46.23227 6.13181 32929 ft 404 kts 201°
2026-05-06 13:40 46.17722 6.11520 32927 ft 406 kts 191°
2026-05-06 13:40 46.12130 6.10288 32932 ft 407 kts 191°
2026-05-06 13:41 46.06536 6.09038 32936 ft 406 kts 191°
2026-05-06 13:41 46.00951 6.07795 32940 ft 406 kts 191°
2026-05-06 13:42 45.95374 6.06557 32948 ft 404 kts 192°
2026-05-06 13:42 45.89795 6.05324 32955 ft 403 kts 192°
2026-05-06 13:43 45.84266 6.04113 32951 ft 401 kts 192°
2026-05-06 13:43 45.78751 6.02896 32946 ft 400 kts 192°
2026-05-06 13:44 45.73251 6.01675 32952 ft 400 kts 192°
2026-05-06 13:44 45.68684 6.00676 32948 ft 399 kts 192°
2026-05-06 13:45 45.63198 5.99474 32943 ft 398 kts 192°
2026-05-06 13:45 45.54982 5.97661 32953 ft 398 kts 192°
2026-05-06 13:46 45.49511 5.96459 32931 ft 397 kts 192°
2026-05-06 13:46 45.44075 5.95096 32925 ft 396 kts 195°
2026-05-06 13:47 45.38677 5.93348 32913 ft 396 kts 196°
2026-05-06 13:47 45.33319 5.91572 32918 ft 395 kts 196°
2026-05-06 13:48 45.27952 5.89881 32933 ft 395 kts 195°
2026-05-06 13:48 45.22571 5.88213 32907 ft 396 kts 195°
2026-05-06 13:49 45.17193 5.86554 32910 ft 395 kts 196°
2026-05-06 13:49 45.11822 5.84886 32916 ft 395 kts 196°
2026-05-06 13:50 45.06457 5.83230 32918 ft 395 kts 195°
2026-05-06 13:50 45.01094 5.81577 32894 ft 394 kts 196°
2026-05-06 13:51 44.95727 5.79926 32902 ft 394 kts 196°
2026-05-06 13:51 44.90366 5.78275 32907 ft 394 kts 196°
2026-05-06 13:52 44.85007 5.76637 32894 ft 394 kts 196°
2026-05-06 13:52 44.79652 5.74999 32899 ft 394 kts 197°
2026-05-06 13:53 44.74305 5.73362 32908 ft 393 kts 197°
2026-05-06 13:53 44.68926 5.71726 32907 ft 393 kts 197°
2026-05-06 13:54 44.63579 5.70096 32924 ft 394 kts 196°
2026-05-06 13:54 44.58221 5.68464 32904 ft 395 kts 196°
2026-05-06 13:55 44.52854 5.66839 32895 ft 395 kts 196°
2026-05-06 13:55 44.47479 5.65213 32877 ft 396 kts 196°
2026-05-06 13:56 44.42093 5.63588 32886 ft 396 kts 197°
2026-05-06 13:56 44.36774 5.61690 32891 ft 392 kts 205°
2026-05-06 13:57 44.31710 5.58887 32891 ft 392 kts 205°
2026-05-06 13:57 44.26642 5.56111 32879 ft 391 kts 205°
2026-05-06 13:58 44.21579 5.53354 32889 ft 390 kts 205°
2026-05-06 13:58 44.16530 5.50608 32889 ft 390 kts 205°
2026-05-06 13:59 44.11478 5.47859 32897 ft 389 kts 205°
2026-05-06 13:59 44.06437 5.45116 32878 ft 388 kts 205°
2026-05-06 14:00 44.01421 5.42378 32895 ft 387 kts 205°
2026-05-06 14:00 43.96377 5.39641 32900 ft 387 kts 205°
2026-05-06 14:01 43.91362 5.36929 32901 ft 386 kts 205°
2026-05-06 14:01 43.86369 5.34234 32899 ft 385 kts 205°
2026-05-06 14:02 43.81384 5.31550 32931 ft 384 kts 205°
2026-05-06 14:02 43.76400 5.28868 32914 ft 384 kts 205°
2026-05-06 14:03 43.71413 5.26198 32906 ft 384 kts 205°
2026-05-06 14:03 43.66435 5.23527 32893 ft 384 kts 205°
2026-05-06 14:04 43.61459 5.20853 32904 ft 384 kts 205°
2026-05-06 14:04 43.56480 5.18188 32931 ft 384 kts 205°
2026-05-06 14:05 43.51503 5.15531 32918 ft 383 kts 205°
2026-05-06 14:05 43.46539 5.12879 32930 ft 382 kts 205°
2026-05-06 14:06 43.41580 5.10242 32933 ft 382 kts 205°
2026-05-06 14:06 43.36869 5.07025 32906 ft 376 kts 217°
2026-05-06 14:07 43.32561 5.02944 32909 ft 376 kts 217°
2026-05-06 14:07 43.28251 4.98885 32890 ft 375 kts 217°
2026-05-06 14:08 43.23916 4.94813 32933 ft 375 kts 217°
2026-05-06 14:08 43.19609 4.90767 32917 ft 376 kts 217°
2026-05-06 14:09 43.15285 4.86725 32914 ft 376 kts 217°
2026-05-06 14:09 43.10958 4.82683 32908 ft 377 kts 217°
2026-05-06 14:10 43.06624 4.78630 32925 ft 378 kts 217°
2026-05-06 14:10 43.02613 4.74058 32930 ft 375 kts 223°
2026-05-06 14:11 42.98705 4.69324 32934 ft 375 kts 223°
2026-05-06 14:11 42.94791 4.64606 32936 ft 375 kts 223°
2026-05-06 14:12 42.90880 4.59889 32920 ft 375 kts 223°
2026-05-06 14:12 42.88923 4.57532 32783 ft 376 kts 223°
2026-05-06 14:12 42.86963 4.55175 32548 ft 376 kts 223°
2026-05-06 14:13 42.84973 4.52788 32285 ft 376 kts 223°
2026-05-06 14:13 42.83012 4.50435 32024 ft 377 kts 223°
2026-05-06 14:13 42.81068 4.48103 31775 ft 377 kts 223°
2026-05-06 14:13 42.79071 4.45714 31513 ft 377 kts 223°
2026-05-06 14:14 42.77107 4.43357 31265 ft 377 kts 223°
2026-05-06 14:14 42.75137 4.40990 31015 ft 378 kts 223°
2026-05-06 14:14 42.73167 4.38626 30767 ft 378 kts 223°
2026-05-06 14:14 42.71196 4.36267 30522 ft 377 kts 223°
2026-05-06 14:15 42.69238 4.33922 30278 ft 375 kts 223°
2026-05-06 14:15 42.67280 4.31582 30034 ft 373 kts 223°
2026-05-06 14:15 42.65331 4.29263 29752 ft 371 kts 223°
2026-05-06 14:15 42.63395 4.26963 29468 ft 370 kts 223°
2026-05-06 14:16 42.61462 4.24667 29191 ft 368 kts 223°
2026-05-06 14:16 42.59539 4.22379 28911 ft 367 kts 223°
2026-05-06 14:16 42.57622 4.20102 28634 ft 365 kts 223°
2026-05-06 14:16 42.55708 4.17835 28398 ft 365 kts 223°
2026-05-06 14:17 42.53793 4.15568 28082 ft 365 kts 223°
2026-05-06 14:17 42.51887 4.13308 27814 ft 363 kts 224°
2026-05-06 14:17 42.50629 4.11815 27637 ft 362 kts 224°
2026-05-06 14:17 42.48713 4.09542 27368 ft 361 kts 224°
2026-05-06 14:18 42.46831 4.07315 27097 ft 359 kts 224°
2026-05-06 14:18 42.44950 4.05094 26847 ft 358 kts 223°
2026-05-06 14:18 42.43070 4.02880 26589 ft 357 kts 223°
2026-05-06 14:18 42.41203 4.00683 26335 ft 356 kts 223°
2026-05-06 14:19 42.39338 3.98490 26077 ft 355 kts 223°
2026-05-06 14:19 42.37480 3.96303 25837 ft 354 kts 224°
2026-05-06 14:19 42.35626 3.94123 25586 ft 352 kts 224°
2026-05-06 14:19 42.33785 3.91959 25298 ft 350 kts 223°
2026-05-06 14:20 42.31952 3.89809 25061 ft 348 kts 223°
2026-05-06 14:20 42.30123 3.87666 24825 ft 348 kts 223°
2026-05-06 14:20 42.28300 3.85529 24584 ft 346 kts 223°
2026-05-06 14:20 42.26481 3.83400 24344 ft 345 kts 223°
2026-05-06 14:21 42.24668 3.81279 24111 ft 344 kts 223°
2026-05-06 14:21 42.22857 3.79159 23887 ft 345 kts 224°
2026-05-06 14:21 42.21042 3.77035 23658 ft 345 kts 224°
2026-05-06 14:21 42.19231 3.74918 23406 ft 345 kts 224°
2026-05-06 14:22 42.17400 3.72781 22723 ft 356 kts 221°
2026-05-06 14:22 42.15477 3.70538 22766 ft 374 kts 221°
2026-05-06 14:22 42.13507 3.68243 22490 ft 379 kts 221°
2026-05-06 14:22 42.11538 3.65953 22231 ft 366 kts 222°
2026-05-06 14:23 42.09647 3.63753 21966 ft 354 kts 222°
2026-05-06 14:23 42.07810 3.61615 21699 ft 345 kts 222°
2026-05-06 14:23 42.06019 3.59514 21436 ft 340 kts 222°
2026-05-06 14:23 42.04246 3.57424 21175 ft 338 kts 222°
2026-05-06 14:24 42.02479 3.55338 20916 ft 338 kts 222°
2026-05-06 14:24 42.00713 3.53256 20662 ft 337 kts 222°
2026-05-06 14:24 41.98948 3.51179 20407 ft 337 kts 222°
2026-05-06 14:24 41.97160 3.49078 20153 ft 337 kts 222°
2026-05-06 14:25 41.95396 3.47007 19903 ft 337 kts 222°
2026-05-06 14:25 41.93633 3.44939 19657 ft 336 kts 222°
2026-05-06 14:25 41.91879 3.42886 19392 ft 332 kts 222°
2026-05-06 14:25 41.90145 3.40860 19148 ft 330 kts 222°
2026-05-06 14:26 41.88421 3.38847 18898 ft 329 kts 222°
2026-05-06 14:26 41.86697 3.36832 18673 ft 328 kts 222°
2026-05-06 14:26 41.84972 3.34815 18437 ft 328 kts 222°
2026-05-06 14:26 41.83256 3.32810 18198 ft 328 kts 222°
2026-05-06 14:27 41.81535 3.30806 17935 ft 328 kts 222°
2026-05-06 14:27 41.79814 3.28806 17664 ft 327 kts 222°
2026-05-06 14:27 41.78096 3.26809 17394 ft 327 kts 222°
2026-05-06 14:27 41.76383 3.24814 17128 ft 326 kts 222°
2026-05-06 14:28 41.74673 3.22824 16861 ft 325 kts 222°
2026-05-06 14:28 41.72964 3.20839 16594 ft 325 kts 222°
2026-05-06 14:28 41.71262 3.18862 16330 ft 323 kts 222°
2026-05-06 14:28 41.69569 3.16899 16074 ft 322 kts 222°
2026-05-06 14:29 41.67875 3.14938 15823 ft 322 kts 222°
2026-05-06 14:29 41.66178 3.12976 15568 ft 322 kts 222°
2026-05-06 14:29 41.64485 3.11022 15331 ft 321 kts 222°
2026-05-06 14:29 41.62800 3.09074 14971 ft 321 kts 221°
2026-05-06 14:30 41.61115 3.07125 14628 ft 320 kts 221°
2026-05-06 14:30 41.59432 3.05179 14282 ft 320 kts 221°
2026-05-06 14:30 41.57744 3.03232 13912 ft 322 kts 221°
2026-05-06 14:30 41.56051 3.01276 13527 ft 322 kts 222°
2026-05-06 14:31 41.54360 2.99324 13151 ft 321 kts 222°
2026-05-06 14:31 41.52672 2.97379 12791 ft 320 kts 222°
2026-05-06 14:31 41.50990 2.95446 12428 ft 317 kts 222°
2026-05-06 14:31 41.49320 2.93531 12058 ft 316 kts 222°
2026-05-06 14:32 41.47638 2.91598 11714 ft 315 kts 222°
2026-05-06 14:32 41.45983 2.89694 11362 ft 314 kts 222°
2026-05-06 14:32 41.44334 2.87797 11004 ft 313 kts 222°
2026-05-06 14:32 41.42690 2.85908 10652 ft 311 kts 222°
2026-05-06 14:33 41.41055 2.84033 10323 ft 308 kts 222°
2026-05-06 14:33 41.39459 2.82208 10197 ft 295 kts 222°
2026-05-06 14:33 41.37937 2.80468 10062 ft 284 kts 222°
2026-05-06 14:33 41.36457 2.78778 9830 ft 277 kts 222°
2026-05-06 14:34 41.35001 2.77113 9700 ft 276 kts 222°
2026-05-06 14:34 41.33547 2.75451 9491 ft 275 kts 222°
2026-05-06 14:34 41.32101 2.73798 9175 ft 273 kts 222°
2026-05-06 14:34 41.30661 2.72157 8847 ft 271 kts 222°
2026-05-06 14:35 41.29235 2.70531 8512 ft 269 kts 222°
2026-05-06 14:35 41.27816 2.68915 8197 ft 268 kts 222°
2026-05-06 14:35 41.26542 2.67135 7871 ft 265 kts 236°
2026-05-06 14:35 41.25708 2.64968 7548 ft 263 kts 252°
2026-05-06 14:36 41.25383 2.62596 7291 ft 262 kts 267°
2026-05-06 14:36 41.25316 2.60173 6984 ft 261 kts 268°
2026-05-06 14:36 41.25246 2.57769 6673 ft 260 kts 268°
2026-05-06 14:36 41.25175 2.55372 6354 ft 259 kts 268°
2026-05-06 14:37 41.25101 2.52988 6006 ft 258 kts 268°
2026-05-06 14:37 41.25025 2.50610 5686 ft 257 kts 268°
2026-05-06 14:37 41.24948 2.48268 5476 ft 248 kts 268°
2026-05-06 14:37 41.24875 2.46017 5347 ft 235 kts 268°
2026-05-06 14:38 41.25057 2.43943 5167 ft 227 kts 288°
2026-05-06 14:38 41.25878 2.42172 5037 ft 231 kts 312°
2026-05-06 14:38 41.27220 2.40920 4783 ft 232 kts 326°
2026-05-06 14:38 41.28584 2.39865 4446 ft 224 kts 327°
2026-05-06 14:39 41.29903 2.38857 4301 ft 208 kts 327°
2026-05-06 14:39 41.31124 2.37924 4242 ft 196 kts 327°
2026-05-06 14:39 41.32275 2.37040 4117 ft 187 kts 327°
2026-05-06 14:39 41.33393 2.36176 4029 ft 185 kts 327°
2026-05-06 14:40 41.34498 2.35323 3945 ft 185 kts 327°
2026-05-06 14:40 41.35615 2.34461 3867 ft 185 kts 327°
2026-05-06 14:40 41.36704 2.33560 3776 ft 184 kts 318°
2026-05-06 14:40 41.37393 2.32171 3698 ft 180 kts 287°
2026-05-06 14:41 41.37429 2.30559 3462 ft 176 kts 257°
2026-05-06 14:41 41.36953 2.29065 3186 ft 175 kts 246°
2026-05-06 14:41 41.36440 2.27583 2873 ft 176 kts 246°
2026-05-06 14:41 41.35933 2.26102 2611 ft 175 kts 245°
2026-05-06 14:42 41.35435 2.24637 2371 ft 174 kts 245°
2026-05-06 14:42 41.34940 2.23184 2131 ft 170 kts 245°
2026-05-06 14:42 41.34461 2.21777 1907 ft 161 kts 243°
2026-05-06 14:42 41.34001 2.20426 1704 ft 158 kts 244°
2026-05-06 14:43 41.33576 2.19175 1474 ft 138 kts 243°
2026-05-06 14:43 41.33185 2.18052 1189 ft 132 kts 242°
2026-05-06 14:43 41.32804 2.16976 1022 ft 127 kts 242°
2026-05-06 14:43 41.32432 2.15914 850 ft 125 kts 244°
2026-05-06 14:44 41.32096 2.14841 742 ft 125 kts 245°
2026-05-06 14:44 41.31726 2.13794 600 ft 124 kts 243°
2026-05-06 14:44 41.31372 2.12720 414 ft 127 kts 246°
2026-05-06 14:45 41.30658 2.10624 101 ft 124 kts 242°
2026-05-06 14:45 41.30313 2.09618 20 ft 108 kts 242°
2026-05-06 14:45 41.30056 2.08879 19 ft 64 kts 246°
2026-05-06 14:45 41.29897 2.08410 25 ft 50 kts 245°
2026-05-06 14:46 41.29770 2.08060 19 ft 34 kts 240°
2026-05-06 14:46 41.29612 2.07848 16 ft 25 kts 216°
2026-05-06 14:46 41.29528 2.07802 17 ft 8 kts 141°
2026-05-06 14:46 41.29533 2.07877 17 ft 9 kts 73°
2026-05-06 14:47 41.29559 2.07956 17 ft 10 kts 66°
2026-05-06 14:47 41.29587 2.08045 18 ft 11 kts 66°
2026-05-06 14:47 41.29621 2.08140 17 ft 12 kts 65°
2026-05-06 14:47 41.29605 2.08234 16 ft 12 kts 144°
2026-05-06 14:48 41.29551 2.08268 16 ft 13 kts 155°
2026-05-06 14:48 41.29468 2.08318 17 ft 13 kts 155°
2026-05-06 14:48 41.29385 2.08369 19 ft 13 kts 155°
2026-05-06 14:48 41.29301 2.08420 22 ft 13 kts 155°
2026-05-06 14:49 41.29212 2.08450 20 ft 14 kts 190°
2026-05-06 14:49 41.29114 2.08407 19 ft 16 kts 199°
2026-05-06 14:49 41.29042 2.08347 19 ft 12 kts 242°
2026-05-06 14:49 41.29008 2.08240 19 ft 13 kts 245°
2026-05-06 14:50 41.28967 2.08124 20 ft 14 kts 245°
2026-05-06 14:50 41.28930 2.08013 21 ft 12 kts 247°
2026-05-06 14:50 41.28894 2.07907 20 ft 13 kts 245°
2026-05-06 14:50 41.28876 2.07839 19 ft 6 kts 274°
2026-05-06 14:51 41.28905 2.07806 19 ft 6 kts 335°
2026-05-06 14:51 41.28942 2.07782 19 ft 5 kts 335°
2026-05-06 14:51 41.28948 2.07779 21 ft 0 kts 336°